Year,Month,Day,Hour,Minute,Value (Times are PST for temperature in C)
2017,06,26,00,00,20.40
2017,06,26,00,01,20.40
2017,06,26,00,02,20.50
2017,06,26,00,03,20.50
2017,06,26,00,04,20.50
2017,06,26,00,05,20.60
2017,06,26,00,06,20.70
2017,06,26,00,07,20.80
2017,06,26,00,08,20.80
2017,06,26,00,09,21.00
2017,06,26,00,10,21.10
2017,06,26,00,11,21.10
2017,06,26,00,12,21.20
2017,06,26,00,13,21.20
2017,06,26,00,14,21.30
2017,06,26,00,15,21.40
2017,06,26,00,16,21.50
2017,06,26,00,17,21.60
2017,06,26,00,18,21.60
2017,06,26,00,19,21.70
2017,06,26,00,20,21.70
2017,06,26,00,21,21.70
2017,06,26,00,22,21.80
2017,06,26,00,23,21.80
2017,06,26,00,24,21.80
2017,06,26,00,25,21.90
2017,06,26,00,26,21.90
2017,06,26,00,27,22.00
2017,06,26,00,28,22.00
2017,06,26,00,29,22.00
2017,06,26,00,30,22.10
2017,06,26,00,31,22.10
2017,06,26,00,32,22.10
2017,06,26,00,33,22.10
2017,06,26,00,34,22.00
2017,06,26,00,35,22.00
2017,06,26,00,36,22.00
2017,06,26,00,37,22.00
2017,06,26,00,38,21.90
2017,06,26,00,39,21.90
2017,06,26,00,40,21.90
2017,06,26,00,41,21.90
2017,06,26,00,42,21.90
2017,06,26,00,43,21.90
2017,06,26,00,44,21.90
2017,06,26,00,45,21.90
2017,06,26,00,46,21.90
2017,06,26,00,47,21.90
2017,06,26,00,48,21.90
2017,06,26,00,49,21.90
2017,06,26,00,50,21.90
2017,06,26,00,51,21.80
2017,06,26,00,52,21.80
2017,06,26,00,53,21.80
2017,06,26,00,54,21.80
2017,06,26,00,55,21.70
2017,06,26,00,56,21.70
2017,06,26,00,57,21.60
2017,06,26,00,58,21.40
2017,06,26,00,59,21.20
2017,06,26,01,00,21.10
2017,06,26,01,01,20.90
2017,06,26,01,02,20.80
2017,06,26,01,03,20.70
2017,06,26,01,04,20.60
2017,06,26,01,05,20.50
2017,06,26,01,06,20.40
2017,06,26,01,07,20.30
2017,06,26,01,08,20.30
2017,06,26,01,09,20.20
2017,06,26,01,10,20.10
2017,06,26,01,11,20.00
2017,06,26,01,12,20.00
2017,06,26,01,13,19.90
2017,06,26,01,14,19.80
2017,06,26,01,15,19.80
2017,06,26,01,16,19.70
2017,06,26,01,17,19.70
2017,06,26,01,18,19.60
2017,06,26,01,19,19.50
2017,06,26,01,20,19.50
2017,06,26,01,21,19.40
2017,06,26,01,22,19.40
2017,06,26,01,23,19.40
2017,06,26,01,24,19.40
2017,06,26,01,25,19.30
2017,06,26,01,26,19.30
2017,06,26,01,27,19.30
2017,06,26,01,28,19.30
2017,06,26,01,29,19.30
2017,06,26,01,30,19.30
2017,06,26,01,31,19.30
2017,06,26,01,32,19.30
2017,06,26,01,33,19.30
2017,06,26,01,34,19.30
2017,06,26,01,35,19.30
2017,06,26,01,36,19.30
2017,06,26,01,37,19.30
2017,06,26,01,38,19.30
2017,06,26,01,39,19.30
2017,06,26,01,40,19.40
2017,06,26,01,41,19.40
2017,06,26,01,42,19.40
2017,06,26,01,43,19.40
2017,06,26,01,44,19.40
2017,06,26,01,45,19.40
2017,06,26,01,46,19.40
2017,06,26,01,47,19.30
2017,06,26,01,48,19.30
2017,06,26,01,49,19.10
2017,06,26,01,50,18.90
2017,06,26,01,51,18.70
2017,06,26,01,52,18.60
2017,06,26,01,53,18.40
2017,06,26,01,54,18.30
2017,06,26,01,55,18.30
2017,06,26,01,56,18.20
2017,06,26,01,57,18.10
2017,06,26,01,58,18.00
2017,06,26,01,59,18.00
2017,06,26,02,00,17.90
2017,06,26,02,01,17.90
2017,06,26,02,02,17.90
2017,06,26,02,03,17.80
2017,06,26,02,04,17.80
2017,06,26,02,05,17.80
2017,06,26,02,06,17.70
2017,06,26,02,07,17.70
2017,06,26,02,08,17.70
2017,06,26,02,09,17.70
2017,06,26,02,10,17.70
2017,06,26,02,11,17.60
2017,06,26,02,12,17.60
2017,06,26,02,13,17.60
2017,06,26,02,14,17.60
2017,06,26,02,15,17.60
2017,06,26,02,16,17.60
2017,06,26,02,17,17.60
2017,06,26,02,18,17.50
2017,06,26,02,19,17.50
2017,06,26,02,20,17.50
2017,06,26,02,21,17.40
2017,06,26,02,22,17.40
2017,06,26,02,23,17.40
2017,06,26,02,24,17.40
2017,06,26,02,25,17.40
2017,06,26,02,26,17.50
2017,06,26,02,27,17.50
2017,06,26,02,28,17.60
2017,06,26,02,29,17.60
2017,06,26,02,30,17.60
2017,06,26,02,31,17.60
2017,06,26,02,32,17.60
2017,06,26,02,33,17.60
2017,06,26,02,34,17.60
2017,06,26,02,35,17.60
2017,06,26,02,36,17.50
2017,06,26,02,37,17.40
2017,06,26,02,38,17.40
2017,06,26,02,39,17.30
2017,06,26,02,40,17.30
2017,06,26,02,41,17.30
2017,06,26,02,42,17.20
2017,06,26,02,43,17.20
2017,06,26,02,44,17.20
2017,06,26,02,45,17.20
2017,06,26,02,46,17.20
2017,06,26,02,47,17.20
2017,06,26,02,48,17.20
2017,06,26,02,49,17.20
2017,06,26,02,50,17.20
2017,06,26,02,51,17.20
2017,06,26,02,52,17.20
2017,06,26,02,53,17.10
2017,06,26,02,54,17.10
2017,06,26,02,55,17.10
2017,06,26,02,56,17.10
2017,06,26,02,57,17.10
2017,06,26,02,58,17.10
2017,06,26,02,59,17.10
2017,06,26,03,00,17.10
2017,06,26,03,01,17.10
2017,06,26,03,02,17.10
2017,06,26,03,03,17.10
2017,06,26,03,04,17.10
2017,06,26,03,05,17.10
2017,06,26,03,06,17.00
2017,06,26,03,07,17.00
2017,06,26,03,08,17.00
2017,06,26,03,09,17.00
2017,06,26,03,10,17.00
2017,06,26,03,11,16.90
2017,06,26,03,12,16.90
2017,06,26,03,13,16.90
2017,06,26,03,14,16.90
2017,06,26,03,15,16.90
2017,06,26,03,16,16.80
2017,06,26,03,17,16.80
2017,06,26,03,18,16.80
2017,06,26,03,19,16.80
2017,06,26,03,20,16.80
2017,06,26,03,21,16.70
2017,06,26,03,22,16.60
2017,06,26,03,23,16.60
2017,06,26,03,24,16.60
2017,06,26,03,25,16.50
2017,06,26,03,26,16.50
2017,06,26,03,27,16.50
2017,06,26,03,28,16.40
2017,06,26,03,29,16.40
2017,06,26,03,30,16.40
2017,06,26,03,31,16.40
2017,06,26,03,32,16.40
2017,06,26,03,33,16.40
2017,06,26,03,34,16.40
2017,06,26,03,35,16.40
2017,06,26,03,36,16.30
2017,06,26,03,37,16.30
2017,06,26,03,38,16.30
2017,06,26,03,39,16.30
2017,06,26,03,40,16.30
2017,06,26,03,41,16.30
2017,06,26,03,42,16.30
2017,06,26,03,43,16.20
2017,06,26,03,44,16.20
2017,06,26,03,45,16.10
2017,06,26,03,46,16.10
2017,06,26,03,47,16.00
2017,06,26,03,48,16.00
2017,06,26,03,49,15.90
2017,06,26,03,50,15.80
2017,06,26,03,51,15.80
2017,06,26,03,52,15.80
2017,06,26,03,53,15.70
2017,06,26,03,54,15.70
2017,06,26,03,55,15.70
2017,06,26,03,56,15.60
2017,06,26,03,57,15.60
2017,06,26,03,58,15.60
2017,06,26,03,59,15.50
2017,06,26,04,00,15.50
2017,06,26,04,01,15.40
2017,06,26,04,02,15.40
2017,06,26,04,03,15.40
2017,06,26,04,04,15.40
2017,06,26,04,05,15.40
2017,06,26,04,06,15.40
2017,06,26,04,07,15.40
2017,06,26,04,08,15.40
2017,06,26,04,09,15.40
2017,06,26,04,10,15.40
2017,06,26,04,11,15.40
2017,06,26,04,12,15.40
2017,06,26,04,13,15.40
2017,06,26,04,14,15.50
2017,06,26,04,15,15.50
2017,06,26,04,16,15.40
2017,06,26,04,17,15.40
2017,06,26,04,18,15.40
2017,06,26,04,19,15.40
2017,06,26,04,20,15.40
2017,06,26,04,21,15.40
2017,06,26,04,22,15.40
2017,06,26,04,23,15.40
2017,06,26,04,24,15.40
2017,06,26,04,25,15.30
2017,06,26,04,26,15.30
2017,06,26,04,27,15.30
2017,06,26,04,28,15.30
2017,06,26,04,29,15.30
2017,06,26,04,30,15.30
2017,06,26,04,31,15.30
2017,06,26,04,32,15.30
2017,06,26,04,33,15.30
2017,06,26,04,34,15.30
2017,06,26,04,35,15.30
2017,06,26,04,36,15.30
2017,06,26,04,37,15.30
2017,06,26,04,38,15.30
2017,06,26,04,39,15.30
2017,06,26,04,40,15.30
2017,06,26,04,41,15.20
2017,06,26,04,42,15.20
2017,06,26,04,43,15.20
2017,06,26,04,44,15.10
2017,06,26,04,45,15.10
2017,06,26,04,46,15.10
2017,06,26,04,47,15.10
2017,06,26,04,48,15.10
2017,06,26,04,49,15.10
2017,06,26,04,50,15.20
2017,06,26,04,51,15.20
2017,06,26,04,52,15.20
2017,06,26,04,53,15.20
2017,06,26,04,54,15.20
2017,06,26,04,55,15.30
2017,06,26,04,56,15.30
2017,06,26,04,57,15.30
2017,06,26,04,58,15.30
2017,06,26,04,59,15.30
2017,06,26,05,00,15.30
2017,06,26,05,01,15.30
2017,06,26,05,02,15.30
2017,06,26,05,03,15.30
2017,06,26,05,04,15.30
2017,06,26,05,05,15.30
2017,06,26,05,06,15.30
2017,06,26,05,07,15.40
2017,06,26,05,08,15.40
2017,06,26,05,09,15.30
2017,06,26,05,10,15.40
2017,06,26,05,11,15.30
2017,06,26,05,12,15.30
2017,06,26,05,13,15.30
2017,06,26,05,14,15.30
2017,06,26,05,15,15.30
2017,06,26,05,16,15.30
2017,06,26,05,17,15.30
2017,06,26,05,18,15.30
2017,06,26,05,19,15.40
2017,06,26,05,20,15.40
2017,06,26,05,21,15.40
2017,06,26,05,22,15.40
2017,06,26,05,23,15.40
2017,06,26,05,24,15.40
2017,06,26,05,25,15.40
2017,06,26,05,26,15.40
2017,06,26,05,27,15.40
2017,06,26,05,28,15.30
2017,06,26,05,29,15.30
2017,06,26,05,30,15.30
2017,06,26,05,31,15.30
2017,06,26,05,32,15.30
2017,06,26,05,33,15.20
2017,06,26,05,34,15.20
2017,06,26,05,35,15.10
2017,06,26,05,36,15.10
2017,06,26,05,37,15.00
2017,06,26,05,38,15.00
2017,06,26,05,39,15.00
2017,06,26,05,40,14.90
2017,06,26,05,41,14.90
2017,06,26,05,42,14.90
2017,06,26,05,43,14.90
2017,06,26,05,44,14.90
2017,06,26,05,45,14.90
2017,06,26,05,46,14.90
2017,06,26,05,47,14.80
2017,06,26,05,48,14.80
2017,06,26,05,49,14.80
2017,06,26,05,50,14.80
2017,06,26,05,51,14.80
2017,06,26,05,52,14.90
2017,06,26,05,53,14.90
2017,06,26,05,54,14.90
2017,06,26,05,55,14.90
2017,06,26,05,56,14.90
2017,06,26,05,57,14.90
2017,06,26,05,58,14.90
2017,06,26,05,59,14.90
2017,06,26,06,00,14.90
2017,06,26,06,01,14.90
2017,06,26,06,02,14.90
2017,06,26,06,03,15.00
2017,06,26,06,04,15.00
2017,06,26,06,05,15.10
2017,06,26,06,06,15.10
2017,06,26,06,07,15.20
2017,06,26,06,08,15.20
2017,06,26,06,09,15.20
2017,06,26,06,10,15.20
2017,06,26,06,11,15.20
2017,06,26,06,12,15.20
2017,06,26,06,13,15.20
2017,06,26,06,14,15.30
2017,06,26,06,15,15.30
2017,06,26,06,16,15.40
2017,06,26,06,17,15.40
2017,06,26,06,18,15.50
2017,06,26,06,19,15.50
2017,06,26,06,20,15.60
2017,06,26,06,21,15.60
2017,06,26,06,22,15.70
2017,06,26,06,23,15.80
2017,06,26,06,24,15.90
2017,06,26,06,25,15.90
2017,06,26,06,26,16.00
2017,06,26,06,27,16.10
2017,06,26,06,28,16.10
2017,06,26,06,29,16.10
2017,06,26,06,30,16.10
2017,06,26,06,31,16.10
2017,06,26,06,32,16.10
2017,06,26,06,33,16.10
2017,06,26,06,34,16.00
2017,06,26,06,35,16.00
2017,06,26,06,36,16.00
2017,06,26,06,37,15.90
2017,06,26,06,38,15.90
2017,06,26,06,39,15.90
2017,06,26,06,40,15.90
2017,06,26,06,41,15.90
2017,06,26,06,42,15.90
2017,06,26,06,43,16.00
2017,06,26,06,44,16.00
2017,06,26,06,45,16.10
2017,06,26,06,46,16.10
2017,06,26,06,47,16.10
2017,06,26,06,48,16.20
2017,06,26,06,49,16.20
2017,06,26,06,50,16.20
2017,06,26,06,51,16.30
2017,06,26,06,52,16.30
2017,06,26,06,53,16.20
2017,06,26,06,54,16.10
2017,06,26,06,55,16.00
2017,06,26,06,56,15.90
2017,06,26,06,57,15.80
2017,06,26,06,58,15.80
2017,06,26,06,59,15.70
2017,06,26,07,00,15.60
2017,06,26,07,01,15.60
2017,06,26,07,02,15.60
2017,06,26,07,03,15.60
2017,06,26,07,04,15.60
2017,06,26,07,05,15.70
2017,06,26,07,06,15.70
2017,06,26,07,07,15.80
2017,06,26,07,08,15.80
2017,06,26,07,09,15.80
2017,06,26,07,10,15.90
2017,06,26,07,11,15.90
2017,06,26,07,12,15.90
2017,06,26,07,13,15.90
2017,06,26,07,14,15.90
2017,06,26,07,15,15.80
2017,06,26,07,16,15.80
2017,06,26,07,17,15.70
2017,06,26,07,18,15.70
2017,06,26,07,19,15.70
2017,06,26,07,20,15.60
2017,06,26,07,21,15.60
2017,06,26,07,22,15.50
2017,06,26,07,23,15.50
2017,06,26,07,24,15.40
2017,06,26,07,25,15.40
2017,06,26,07,26,15.40
2017,06,26,07,27,15.40
2017,06,26,07,28,15.40
2017,06,26,07,29,15.50
2017,06,26,07,30,15.60
2017,06,26,07,31,15.60
2017,06,26,07,32,15.70
2017,06,26,07,33,15.70
2017,06,26,07,34,15.80
2017,06,26,07,35,15.90
2017,06,26,07,36,16.00
2017,06,26,07,37,16.10
2017,06,26,07,38,16.10
2017,06,26,07,39,16.20
2017,06,26,07,40,16.30
2017,06,26,07,41,16.40
2017,06,26,07,42,16.60
2017,06,26,07,43,16.70
2017,06,26,07,44,16.80
2017,06,26,07,45,16.90
2017,06,26,07,46,17.00
2017,06,26,07,47,17.10
2017,06,26,07,48,17.30
2017,06,26,07,49,17.40
2017,06,26,07,50,17.50
2017,06,26,07,51,17.50
2017,06,26,07,52,17.60
2017,06,26,07,53,17.70
2017,06,26,07,54,17.80
2017,06,26,07,55,17.90
2017,06,26,07,56,18.00
2017,06,26,07,57,18.10
2017,06,26,07,58,18.20
2017,06,26,07,59,18.30
2017,06,26,08,00,18.40
2017,06,26,08,01,18.40
2017,06,26,08,02,18.40
2017,06,26,08,03,18.40
2017,06,26,08,04,18.40
2017,06,26,08,05,18.40
2017,06,26,08,06,18.40
2017,06,26,08,07,18.50
2017,06,26,08,08,18.60
2017,06,26,08,09,18.60
2017,06,26,08,10,18.70
2017,06,26,08,11,18.80
2017,06,26,08,12,18.80
2017,06,26,08,13,18.90
2017,06,26,08,14,19.10
2017,06,26,08,15,19.10
2017,06,26,08,16,19.10
2017,06,26,08,17,19.20
2017,06,26,08,18,19.20
2017,06,26,08,19,19.20
2017,06,26,08,20,19.20
2017,06,26,08,21,19.20
2017,06,26,08,22,19.20
2017,06,26,08,23,19.10
2017,06,26,08,24,19.10
2017,06,26,08,25,19.20
2017,06,26,08,26,19.20
2017,06,26,08,27,19.20
2017,06,26,08,28,19.20
2017,06,26,08,29,19.20
2017,06,26,08,30,19.20
2017,06,26,08,31,19.20
2017,06,26,08,32,19.20
2017,06,26,08,33,19.20
2017,06,26,08,34,19.10
2017,06,26,08,35,19.00
2017,06,26,08,36,18.90
2017,06,26,08,37,18.90
2017,06,26,08,38,18.80
2017,06,26,08,39,18.80
2017,06,26,08,40,18.80
2017,06,26,08,41,18.70
2017,06,26,08,42,18.70
2017,06,26,08,43,18.70
2017,06,26,08,44,18.80
2017,06,26,08,45,18.80
2017,06,26,08,46,18.90
2017,06,26,08,47,18.80
2017,06,26,08,48,18.60
2017,06,26,08,49,18.50
2017,06,26,08,50,18.40
2017,06,26,08,51,18.40
2017,06,26,08,52,18.40
2017,06,26,08,53,18.40
2017,06,26,08,54,18.40
2017,06,26,08,55,18.50
2017,06,26,08,56,18.50
2017,06,26,08,57,18.50
2017,06,26,08,58,18.30
2017,06,26,08,59,18.10
2017,06,26,09,00,17.90
2017,06,26,09,01,17.70
2017,06,26,09,02,17.60
2017,06,26,09,03,17.40
2017,06,26,09,04,17.40
2017,06,26,09,05,17.40
2017,06,26,09,06,17.40
2017,06,26,09,07,17.40
2017,06,26,09,08,17.50
2017,06,26,09,09,17.60
2017,06,26,09,10,17.80
2017,06,26,09,11,17.90
2017,06,26,09,12,17.90
2017,06,26,09,13,17.90
2017,06,26,09,14,17.90
2017,06,26,09,15,17.80
2017,06,26,09,16,17.80
2017,06,26,09,17,17.70
2017,06,26,09,18,17.60
2017,06,26,09,19,17.60
2017,06,26,09,20,17.50
2017,06,26,09,21,17.40
2017,06,26,09,22,17.40
2017,06,26,09,23,17.40
2017,06,26,09,24,17.40
2017,06,26,09,25,17.40
2017,06,26,09,26,17.40
2017,06,26,09,27,17.40
2017,06,26,09,28,17.30
2017,06,26,09,29,17.30
2017,06,26,09,30,17.40
2017,06,26,09,31,17.50
2017,06,26,09,32,17.60
2017,06,26,09,33,17.60
2017,06,26,09,34,17.70
2017,06,26,09,35,17.80
2017,06,26,09,36,17.80
2017,06,26,09,37,17.80
2017,06,26,09,38,17.80
2017,06,26,09,39,17.80
2017,06,26,09,40,17.80
2017,06,26,09,41,17.70
2017,06,26,09,42,17.70
2017,06,26,09,43,17.70
2017,06,26,09,44,17.70
2017,06,26,09,45,17.60
2017,06,26,09,46,17.60
2017,06,26,09,47,17.50
2017,06,26,09,48,17.40
2017,06,26,09,49,17.40
2017,06,26,09,50,17.40
2017,06,26,09,51,17.40
2017,06,26,09,52,17.40
2017,06,26,09,53,17.40
2017,06,26,09,54,17.40
2017,06,26,09,55,17.40
2017,06,26,09,56,17.50
2017,06,26,09,57,17.50
2017,06,26,09,58,17.50
2017,06,26,09,59,17.60
2017,06,26,10,00,17.60
2017,06,26,10,01,17.70
2017,06,26,10,02,17.70
2017,06,26,10,03,17.80
2017,06,26,10,04,17.90
2017,06,26,10,05,18.00
2017,06,26,10,06,18.10
2017,06,26,10,07,18.20
2017,06,26,10,08,18.20
2017,06,26,10,09,18.20
2017,06,26,10,10,18.20
2017,06,26,10,11,18.30
2017,06,26,10,12,18.30
2017,06,26,10,13,18.30
2017,06,26,10,14,18.30
2017,06,26,10,15,18.40
2017,06,26,10,16,18.50
2017,06,26,10,17,18.50
2017,06,26,10,18,18.50
2017,06,26,10,19,18.60
2017,06,26,10,20,18.60
2017,06,26,10,21,18.60
2017,06,26,10,22,18.60
2017,06,26,10,23,18.60
2017,06,26,10,24,18.60
2017,06,26,10,25,18.60
2017,06,26,10,26,18.60
2017,06,26,10,27,18.60
2017,06,26,10,28,18.60
2017,06,26,10,29,18.60
2017,06,26,10,30,18.70
2017,06,26,10,31,18.80
2017,06,26,10,32,18.80
2017,06,26,10,33,18.80
2017,06,26,10,34,18.90
2017,06,26,10,35,18.90
2017,06,26,10,36,19.00
2017,06,26,10,37,19.00
2017,06,26,10,38,19.00
2017,06,26,10,39,19.00
2017,06,26,10,40,19.00
2017,06,26,10,41,19.10
2017,06,26,10,42,19.10
2017,06,26,10,43,19.20
2017,06,26,10,44,19.20
2017,06,26,10,45,19.20
2017,06,26,10,46,19.20
2017,06,26,10,47,19.10
2017,06,26,10,48,19.00
2017,06,26,10,49,19.00
2017,06,26,10,50,19.00
2017,06,26,10,51,19.10
2017,06,26,10,52,19.10
2017,06,26,10,53,19.20
2017,06,26,10,54,19.20
2017,06,26,10,55,19.20
2017,06,26,10,56,19.30
2017,06,26,10,57,19.20
2017,06,26,10,58,19.20
2017,06,26,10,59,19.20
2017,06,26,11,00,19.20
2017,06,26,11,01,19.30
2017,06,26,11,02,19.30
2017,06,26,11,03,19.30
2017,06,26,11,04,19.30
2017,06,26,11,05,19.40
2017,06,26,11,06,19.50
2017,06,26,11,07,19.50
2017,06,26,11,08,19.60
2017,06,26,11,09,19.60
2017,06,26,11,10,19.60
2017,06,26,11,11,19.60
2017,06,26,11,12,19.60
2017,06,26,11,13,19.70
2017,06,26,11,14,19.70
2017,06,26,11,15,19.80
2017,06,26,11,16,19.90
2017,06,26,11,17,20.00
2017,06,26,11,18,20.00
2017,06,26,11,19,20.00
2017,06,26,11,20,19.90
2017,06,26,11,21,19.90
2017,06,26,11,22,19.70
2017,06,26,11,23,19.50
2017,06,26,11,24,19.40
2017,06,26,11,25,19.30
2017,06,26,11,26,19.20
2017,06,26,11,27,19.20
2017,06,26,11,28,19.10
2017,06,26,11,29,19.00
2017,06,26,11,30,18.90
2017,06,26,11,31,18.80
2017,06,26,11,32,18.70
2017,06,26,11,33,18.60
2017,06,26,11,34,18.60
2017,06,26,11,35,18.70
2017,06,26,11,36,18.70
2017,06,26,11,37,18.70
2017,06,26,11,38,18.70
2017,06,26,11,39,18.70
2017,06,26,11,40,18.70
2017,06,26,11,41,18.70
2017,06,26,11,42,18.60
2017,06,26,11,43,18.70
2017,06,26,11,44,18.70
2017,06,26,11,45,18.80
2017,06,26,11,46,18.80
2017,06,26,11,47,18.80
2017,06,26,11,48,18.90
2017,06,26,11,49,18.90
2017,06,26,11,50,18.90
2017,06,26,11,51,18.90
2017,06,26,11,52,18.90
2017,06,26,11,53,18.80
2017,06,26,11,54,18.80
2017,06,26,11,55,19.00
2017,06,26,11,56,19.10
2017,06,26,11,57,19.30
2017,06,26,11,58,19.30
2017,06,26,11,59,19.30
2017,06,26,12,00,19.20
2017,06,26,12,01,19.10
2017,06,26,12,02,19.10
2017,06,26,12,03,19.10
2017,06,26,12,04,19.10
2017,06,26,12,05,19.20
2017,06,26,12,06,19.30
2017,06,26,12,07,19.40
2017,06,26,12,08,19.40
2017,06,26,12,09,19.50
2017,06,26,12,10,19.50
2017,06,26,12,11,19.60
2017,06,26,12,12,19.60
2017,06,26,12,13,19.70
2017,06,26,12,14,19.70
2017,06,26,12,15,19.70
2017,06,26,12,16,19.70
2017,06,26,12,17,19.70
2017,06,26,12,18,19.70
2017,06,26,12,19,19.70
2017,06,26,12,20,19.70
2017,06,26,12,21,19.70
2017,06,26,12,22,19.60
2017,06,26,12,23,19.50
2017,06,26,12,24,19.50
2017,06,26,12,25,19.50
2017,06,26,12,26,19.50
2017,06,26,12,27,19.60
2017,06,26,12,28,19.70
2017,06,26,12,29,19.70
2017,06,26,12,30,19.70
2017,06,26,12,31,19.70
2017,06,26,12,32,19.60
2017,06,26,12,33,19.60
2017,06,26,12,34,19.60
2017,06,26,12,35,19.70
2017,06,26,12,36,19.70
2017,06,26,12,37,19.80
2017,06,26,12,38,19.80
2017,06,26,12,39,19.90
2017,06,26,12,40,20.00
2017,06,26,12,41,20.10
2017,06,26,12,42,20.10
2017,06,26,12,43,20.10
2017,06,26,12,44,20.00
2017,06,26,12,45,20.00
2017,06,26,12,46,20.10
2017,06,26,12,47,20.10
2017,06,26,12,48,20.10
2017,06,26,12,49,20.10
2017,06,26,12,50,20.00
2017,06,26,12,51,19.90
2017,06,26,12,52,19.90
2017,06,26,12,53,19.90
2017,06,26,12,54,20.00
2017,06,26,12,55,20.10
2017,06,26,12,56,20.10
2017,06,26,12,57,20.10
2017,06,26,12,58,20.10
2017,06,26,12,59,20.10
2017,06,26,13,00,20.10
2017,06,26,13,01,20.10
2017,06,26,13,02,20.10
2017,06,26,13,03,20.10
2017,06,26,13,04,20.00
2017,06,26,13,05,19.90
2017,06,26,13,06,19.90
2017,06,26,13,07,19.90
2017,06,26,13,08,19.90
2017,06,26,13,09,19.90
2017,06,26,13,10,19.90
2017,06,26,13,11,19.90
2017,06,26,13,12,20.00
2017,06,26,13,13,20.00
2017,06,26,13,14,20.10
2017,06,26,13,15,20.20
2017,06,26,13,16,20.30
2017,06,26,13,17,20.30
2017,06,26,13,18,20.40
2017,06,26,13,19,20.50
2017,06,26,13,20,20.50
2017,06,26,13,21,20.50
2017,06,26,13,22,20.50
2017,06,26,13,23,20.50
2017,06,26,13,24,20.50
2017,06,26,13,25,20.60
2017,06,26,13,26,20.60
2017,06,26,13,27,20.70
2017,06,26,13,28,20.70
2017,06,26,13,29,20.80
2017,06,26,13,30,20.80
2017,06,26,13,31,20.80
2017,06,26,13,32,20.70
2017,06,26,13,33,20.60
2017,06,26,13,34,20.60
2017,06,26,13,35,20.60
2017,06,26,13,36,20.60
2017,06,26,13,37,20.70
2017,06,26,13,38,20.70
2017,06,26,13,39,20.70
2017,06,26,13,40,20.80
2017,06,26,13,41,20.80
2017,06,26,13,42,20.80
2017,06,26,13,43,20.70
2017,06,26,13,44,20.60
2017,06,26,13,45,20.40
2017,06,26,13,46,20.40
2017,06,26,13,47,20.30
2017,06,26,13,48,20.40
2017,06,26,13,49,20.40
2017,06,26,13,50,20.40
2017,06,26,13,51,20.50
2017,06,26,13,52,20.60
2017,06,26,13,53,20.60
2017,06,26,13,54,20.70
2017,06,26,13,55,20.70
2017,06,26,13,56,20.70
2017,06,26,13,57,20.50
2017,06,26,13,58,20.40
2017,06,26,13,59,20.30
2017,06,26,14,00,20.30
2017,06,26,14,01,20.30
2017,06,26,14,02,20.30
2017,06,26,14,03,20.30
2017,06,26,14,04,20.30
2017,06,26,14,05,20.40
2017,06,26,14,06,20.40
2017,06,26,14,07,20.40
2017,06,26,14,08,20.40
2017,06,26,14,09,20.50
2017,06,26,14,10,20.60
2017,06,26,14,11,20.80
2017,06,26,14,12,20.80
2017,06,26,14,13,20.90
2017,06,26,14,14,21.00
2017,06,26,14,15,21.10
2017,06,26,14,16,21.10
2017,06,26,14,17,21.10
2017,06,26,14,18,21.20
2017,06,26,14,19,21.20
2017,06,26,14,20,21.30
2017,06,26,14,21,21.40
2017,06,26,14,22,21.50
2017,06,26,14,23,21.60
2017,06,26,14,24,21.50
2017,06,26,14,25,21.40
2017,06,26,14,26,21.40
2017,06,26,14,27,21.40
2017,06,26,14,28,21.40
2017,06,26,14,29,21.40
2017,06,26,14,30,21.40
2017,06,26,14,31,21.50
2017,06,26,14,32,21.60
2017,06,26,14,33,21.60
2017,06,26,14,34,21.60
2017,06,26,14,35,21.50
2017,06,26,14,36,21.40
2017,06,26,14,37,21.30
2017,06,26,14,38,21.30
2017,06,26,14,39,21.30
2017,06,26,14,40,21.30
2017,06,26,14,41,21.20
2017,06,26,14,42,21.30
2017,06,26,14,43,21.20
2017,06,26,14,44,21.20
2017,06,26,14,45,21.10
2017,06,26,14,46,21.10
2017,06,26,14,47,21.20
2017,06,26,14,48,21.20
2017,06,26,14,49,21.20
2017,06,26,14,50,21.10
2017,06,26,14,51,20.90
2017,06,26,14,52,20.50
2017,06,26,14,53,20.30
2017,06,26,14,54,20.10
2017,06,26,14,55,20.00
2017,06,26,14,56,19.90
2017,06,26,14,57,19.70
2017,06,26,14,58,19.60
2017,06,26,14,59,19.60
2017,06,26,15,00,19.50
2017,06,26,15,01,19.30
2017,06,26,15,02,19.20
2017,06,26,15,03,19.10
2017,06,26,15,04,19.10
2017,06,26,15,05,19.20
2017,06,26,15,06,19.30
2017,06,26,15,07,19.40
2017,06,26,15,08,19.50
2017,06,26,15,09,19.60
2017,06,26,15,10,19.70
2017,06,26,15,11,19.60
2017,06,26,15,12,19.50
2017,06,26,15,13,19.40
2017,06,26,15,14,19.40
2017,06,26,15,15,19.40
2017,06,26,15,16,19.40
2017,06,26,15,17,19.40
2017,06,26,15,18,19.50
2017,06,26,15,19,19.50
2017,06,26,15,20,19.40
2017,06,26,15,21,19.50
2017,06,26,15,22,19.50
2017,06,26,15,23,19.50
2017,06,26,15,24,19.60
2017,06,26,15,25,19.70
2017,06,26,15,26,19.80
2017,06,26,15,27,19.80
2017,06,26,15,28,19.90
2017,06,26,15,29,19.90
2017,06,26,15,30,20.00
2017,06,26,15,31,20.00
2017,06,26,15,32,20.10
2017,06,26,15,33,20.10
2017,06,26,15,34,20.10
2017,06,26,15,35,20.10
2017,06,26,15,36,20.20
2017,06,26,15,37,20.20
2017,06,26,15,38,20.20
2017,06,26,15,39,20.20
2017,06,26,15,40,20.20
2017,06,26,15,41,20.20
2017,06,26,15,42,20.30
2017,06,26,15,43,20.30
2017,06,26,15,44,20.40
2017,06,26,15,45,20.40
2017,06,26,15,46,20.50
2017,06,26,15,47,20.40
2017,06,26,15,48,20.40
2017,06,26,15,49,20.50
2017,06,26,15,50,20.50
2017,06,26,15,51,20.50
2017,06,26,15,52,20.60
2017,06,26,15,53,20.60
2017,06,26,15,54,20.60
2017,06,26,15,55,20.60
2017,06,26,15,56,20.60
2017,06,26,15,57,20.70
2017,06,26,15,58,20.70
2017,06,26,15,59,20.70
2017,06,26,16,00,20.80
2017,06,26,16,01,20.80
2017,06,26,16,02,20.90
2017,06,26,16,03,20.90
2017,06,26,16,04,20.80
2017,06,26,16,05,20.70
2017,06,26,16,06,20.70
2017,06,26,16,07,20.80
2017,06,26,16,08,20.80
2017,06,26,16,09,20.90
2017,06,26,16,10,20.90
2017,06,26,16,11,20.90
2017,06,26,16,12,20.90
2017,06,26,16,13,20.90
2017,06,26,16,14,21.00
2017,06,26,16,15,21.00
2017,06,26,16,16,20.90
2017,06,26,16,17,20.90
2017,06,26,16,18,21.00
2017,06,26,16,19,21.10
2017,06,26,16,20,21.10
2017,06,26,16,21,21.10
2017,06,26,16,22,21.00
2017,06,26,16,23,21.10
2017,06,26,16,24,21.10
2017,06,26,16,25,21.10
2017,06,26,16,26,21.10
2017,06,26,16,27,21.00
2017,06,26,16,28,21.00
2017,06,26,16,29,21.00
2017,06,26,16,30,21.10
2017,06,26,16,31,21.10
2017,06,26,16,32,21.00
2017,06,26,16,33,20.90
2017,06,26,16,34,20.80
2017,06,26,16,35,20.80
2017,06,26,16,36,20.80
2017,06,26,16,37,20.90
2017,06,26,16,38,20.90
2017,06,26,16,39,20.90
2017,06,26,16,40,21.00
2017,06,26,16,41,21.00
2017,06,26,16,42,21.10
2017,06,26,16,43,21.10
2017,06,26,16,44,21.10
2017,06,26,16,45,21.20
2017,06,26,16,46,21.20
2017,06,26,16,47,21.20
2017,06,26,16,48,21.10
2017,06,26,16,49,21.10
2017,06,26,16,50,21.10
2017,06,26,16,51,21.20
2017,06,26,16,52,21.20
2017,06,26,16,53,21.20
2017,06,26,16,54,21.30
2017,06,26,16,55,21.30
2017,06,26,16,56,21.30
2017,06,26,16,57,21.30
2017,06,26,16,58,21.30
2017,06,26,16,59,21.30
2017,06,26,17,00,21.30
2017,06,26,17,01,21.20
2017,06,26,17,02,21.20
2017,06,26,17,03,21.10
2017,06,26,17,04,21.20
2017,06,26,17,05,21.10
2017,06,26,17,06,21.10
2017,06,26,17,07,21.10
2017,06,26,17,08,21.10
2017,06,26,17,09,21.10
2017,06,26,17,10,21.10
2017,06,26,17,11,21.20
2017,06,26,17,12,21.30
2017,06,26,17,13,21.50
2017,06,26,17,14,21.60
2017,06,26,17,15,21.60
2017,06,26,17,16,21.70
2017,06,26,17,17,21.70
2017,06,26,17,18,21.70
2017,06,26,17,19,21.60